This is the latest recevied weather packets stored in our database for station/object DJ9MA-10. If no packets are shown the sender has not sent any weather packets the latest 10 day(s).
| Time | Temp. | Humidity | Pressure | Rain* | Wind** | Luminosity | Snow |
|---|---|---|---|---|---|---|---|
| 1777767249 | 17.22° C | 83% | 964.2 hPa | - | - | - | - |
| 1777766349 | 17.78° C | 80% | 964.4 hPa | - | - | - | - |
| 1777765449 | 17.78° C | 79% | 964.4 hPa | - | - | - | - |
| 1777764549 | 17.78° C | 80% | 964.5 hPa | - | - | - | - |
| 1777763649 | 17.78° C | 78% | 964.4 hPa | - | - | - | - |
| 1777762749 | 18.33° C | 76% | 964.4 hPa | - | - | - | - |
| 1777761848 | 18.89° C | 70% | 964.5 hPa | - | - | - | - |
| 1777760948 | 18.89° C | 65% | 964.6 hPa | - | - | - | - |
| 1777760048 | 19.44° C | 61% | 964.7 hPa | - | - | - | - |
| 1777759148 | 19.44° C | 57% | 964.8 hPa | - | - | - | - |
| 1777758248 | 20° C | 57% | 964.8 hPa | - | - | - | - |
| 1777757348 | 20.56° C | 53% | 964.9 hPa | - | - | - | - |
| 1777756448 | 20.56° C | 51% | 965 hPa | - | - | - | - |
| 1777755548 | 20.56° C | 50% | 965 hPa | - | - | - | - |
| 1777754648 | 21.11° C | 48% | 965 hPa | - | - | - | - |
| 1777753748 | 21.11° C | 46% | 965.1 hPa | - | - | - | - |
| 1777752848 | 21.67° C | 45% | 965.2 hPa | - | - | - | - |
| 1777751948 | 22.22° C | 44% | 965.2 hPa | - | - | - | - |
| 1777750148 | 22.78° C | 42% | 965 hPa | - | - | - | - |
| 1777749248 | 23.33° C | 41% | 965 hPa | - | - | - | - |
| 1777748348 | 23.89° C | 39% | 965 hPa | - | - | - | - |
| 1777747448 | 23.33° C | 39% | 964.9 hPa | - | - | - | - |
| 1777746547 | 23.89° C | 38% | 964.9 hPa | - | - | - | - |
| 1777745648 | 24.44° C | 37% | 964.8 hPa | - | - | - | - |
| 1777744747 | 25° C | 36% | 964.8 hPa | - | - | - | - |
* Rain since midnight (hover to see other rain measurements)
** Current wind speed in m/s (hover to see current wind gust speed)